Regional Weather Roundup
Issued by NWS Cleveland, OH

Home | Current Version | Previous Version | Graphics & Text | Print | Product List | Glossary On
Versions: 1 2 3 4 5 6 7 8 9 10 11 12 13 14 15 16 17 18 19 20 21 22 23 24 25 26 27 28 29 30 31 32 33 34 35 36 37 38 39 40 41 42 43 44 45 46 47 48 49 50
000
ASUS41 KCLE 200710
RWRCLE
OHIO REGIONAL WEATHER ROUNDUP
NATIONAL WEATHER SERVICE WILMINGTON, OH
200 AM EST SAT DEC 20 2014

NOTE: "FAIR" INDICATES FEW OR NO CLOUDS BELOW 12,000 FEET WITH NO
SIGNIFICANT WEATHER AND/OR OBSTRUCTIONS TO VISIBILITY.

OHZ001>008-015>018-024>027-034-035-043-044-200800-
   NORTHWEST OHIO

CITY           SKY/WX    TMP DP  RH WIND       PRES   REMARKS
DEFIANCE       CLOUDY    29  24  82 N3        30.27S
FINDLAY        CLOUDY    30  22  72 SE3       30.25S
TOLEDO EXPRESS CLOUDY    29  20  69 CALM      30.27S
TOLEDO METCALF CLOUDY    30  23  75 E3        30.28S
LIMA           CLOUDY    30  23  75 CALM      30.24F
$$

OHZ009>014-019>023-028>033-038-089-200800-
   NORTHEAST OHIO

CITY           SKY/WX    TMP DP  RH WIND       PRES   REMARKS
CLE-HOPKINS    CLOUDY    29  20  69 SW5       30.29S WCI  24
CLE-LAKEFRONT  CLOUDY    31  20  63 CALM      30.27S
CUY CO. ARPT   NOT AVBL
LORAIN-ELYRIA  CLOUDY    28  21  75 S6        30.27S WCI  22
ASHTABULA      CLOUDY    29  19  66 W5        30.25S WCI  24
AKRON-CANTON   CLOUDY    28  20  71 CALM      30.24S
WOOSTER        CLOUDY    28  20  71 CALM      30.25S
MANSFIELD      CLOUDY    27  20  75 CALM      30.24R
YOUNGSTOWN     CLOUDY    27  18  69 CALM      30.24R
$$

OHZ042-051>053-060>062-070>072-077>081-200800-
  SOUTHWEST OHIO

CITY           SKY/WX    TMP DP  RH WIND       PRES   REMARKS
CINC-COVINGTON CLOUDY    30  21  69 SE6       30.25S WCI  24
CINC-LUNKEN    CLOUDY    31  23  72 NE5       30.29S WCI  26
HAMILTON       CLOUDY    31  24  75 E3        30.28R
DAYTON         CLOUDY    30  22  72 E3        30.26S
WRIGHT-PAT AFB CLOUDY    29  22  75 E5        30.26R WCI  24
DAYTON GENERAL CLOUDY    29  23  78 CALM      30.26R
WILMINGTON     CLOUDY    28  22  78 E5        30.25R WCI  23
$$

OHZ036-037-039>041-045>050-054>059-063>069-073>076-082>088-200800-
  CENTRAL AND SOUTHEAST OHIO

CITY           SKY/WX    TMP DP  RH WIND       PRES   REMARKS
COLUMBUS       CLOUDY    29  22  75 CALM      30.25F
OSU AIRPORT    CLOUDY    29  22  75 E5        30.24F WCI  24
BOLTON FIELD   CLOUDY    29  24  79 E3        30.25S
RICKENBACK AFB CLOUDY    29  23  78 E3        30.26R
NEWARK         CLOUDY    30  23  75 NE5       30.24F WCI  25
MARION         CLOUDY    29  21  72 SE3       30.25S
LANCASTER      CLOUDY    41  23  48 E3        30.25F
ZANESVILLE     CLOUDY    29  22  75 E5        30.24F WCI  24
NEW PHILLY     CLOUDY    30  21  69 CALM      30.26F
$$


USA.gov is the U.S. government's official web portal to all federal, state and local government web resources and services.